Flag for Brazil Weather past 2 weeks in Salvador, Bahia, Brazil

Now
75 °F

Passing clouds.


Feels Like: 75 °F
Forecast: 78 / 84 °F
Wind: 6 mph from Northwest

Location: Salvador Aeroporto

Current Time: Dec 20, 2014 at 5:14:21 AM

Latest Report: Dec 20, 2014 at 5:00 AM


Visibility: N/A

Pressure: 29.92 "Hg

Humidity: 89%

Dew point: 72 °F

Location of SalvadorLocation

Historic Weather in Salvador — Graph

°F

Salvador temperature yesterday

Maximum temperature yesterday: 82 °F (at 10:00 AM)
Minimum temperature yesterday: 75 °F (at 12:00 AM)
Average temperature yesterday: 77 °F

Past Weeks' High & Low Weather Summary

 TemperatureHumidityPressure
High86 °F (Dec 10, 2:00 PM)100% (Dec 11, 8:00 AM)30.01 "Hg (Dec 11, 8:00 AM)
Low39 °F (Dec 18, 12:00 AM)59% (Dec 10, 2:00 PM)29.83 "Hg (Dec 14, 3:00 PM)
Average78 °F78%29.92 "Hg
* Reported Dec 5 4:00 AM — Dec 20 4:00 AM, Salvador, Weather by CustomWeather, © 2014

Note: Actual official high and low records may vary slightly from our data, if they occured in-between our weather recording intervals... More about our weather records

Advertising

Salvador weather history for previous 24 hours

 ConditionsComfort  
Time TempWeatherWind HumidityBarometerVisibility
4:00 AM
Dec 20
75 °FPassing clouds.3 mph89%29.92 "HgN/A
3:00 AM75 °FPassing clouds.3 mph89%29.92 "HgN/A
2:00 AM75 °FPassing clouds.2 mph89%29.92 "HgN/A
1:00 AM77 °FPassing clouds.7 mph83%29.89 "HgN/A
12:00 AM77 °FPartly cloudy.8 mph83%29.92 "HgN/A
11:00 PM
Dec 19
77 °FPartly cloudy.7 mph83%29.92 "HgN/A
10:00 PM77 °FPartly cloudy.7 mph83%29.92 "HgN/A
9:00 PM77 °FPartly cloudy.9 mph83%29.92 "HgN/A
8:00 PM77 °FPassing clouds.12 mph89%29.89 "HgN/A
7:00 PM77 °FPassing clouds.12 mph89%29.89 "HgN/A
6:00 PM77 °FPartly sunny.10 mph89%29.86 "HgN/A
5:00 PM79 °FPartly sunny.13 mph84%29.83 "HgN/A
4:00 PM79 °FPartly sunny.14 mph84%29.83 "Hg6 mi
3:00 PM79 °FBroken clouds.13 mph84%29.83 "Hg6 mi
2:00 PMN/ALight rain.13 mphN/AN/A2 mi
1:00 PM77 °FLight rain. Fog.14 mph89%29.86 "Hg2 mi
12:00 PM79 °FLight rain. Fog.14 mph79%29.89 "Hg2 mi
11:00 AM82 °FMostly cloudy.10 mph70%29.89 "HgN/A
10:00 AM82 °FMostly cloudy.13 mph70%29.89 "HgN/A
9:00 AM81 °FMostly cloudy.10 mph79%29.89 "HgN/A
8:00 AM79 °FBroken clouds.13 mph84%29.89 "HgN/A
7:00 AM77 °FBroken clouds.7 mph89%29.86 "HgN/A
6:00 AM75 °FPartly cloudy.6 mph89%29.86 "HgN/A
5:00 AM75 °FPartly cloudy.5 mph89%29.86 "HgN/A
Weather by CustomWeather, © 2014

See weather overviewHow to use our weather pages